TIME,DELAY(SENSOR),PRES,T(CTD),SAL,OXYGEN,RAWTEMP,T(OPTODE),TCPHASE,FLUOR,BETA(BETA700),BETA(BETA412),BETA(BETA440),CDOM,C(CSC),ED(ED411.90),ED(ED443.80),ED(ED489.40),ED(ED554.70),LU(LU412.20),LU(LU443.80),LU(LU489.40),LU(LU555.00),COMP,TILTX,TILTX(TILTY),CHECK
1347895046,5805,497.2799987792969000,17.6103992462158200,36.4887008666992200,235.2926025390625000,168.2682037353515600,17.6052703857421880,30.8945503234863280,50,101,97,78,65,13299,2146957412,2147515995,2147266240,2147465874,2147085330,2146952804,2147657609,2147122340,15,-1,8,25315
1347895167,5805,486.3200073242187500,17.6755008697509770,36.5007019042968750,236.0473022460937500,165.9183959960937500,17.6761798858642580,30.8264503479003900,50,101,96,79,64,13297,2146955483,2147511917,2147265746,2147465773,2147086144,2146957924,2147654116,2147122313,3342,-1,8,64487
1347895288,5809,475.4599914550781000,17.7479000091552730,36.5135993957519500,236.6755981445312500,163.6604003906250000,17.7443294525146500,30.7661705017089840,50,101,97,78,64,13301,2146956726,2147514057,2147266660,2147463515,2147083547,2146958217,2147658121,2147122788,59,-1,8,24301
1347895412,5806,464.3099975585937500,17.8096008300781250,36.5228004455566400,236.5834960937500000,161.4282073974609400,17.8117198944091800,30.7405395507812500,50,100,96,78,64,13300,2146957339,2147514194,2147262299,2147461403,2147084452,2146956571,2147655533,2147123026,63,-1,8,24251
1347895533,5809,453.6000061035156000,17.8584003448486330,36.5316009521484400,237.1683959960937500,159.9761962890625000,17.8555507659912100,30.6932697296142580,50,100,96,78,64,13301,2146956251,2147514203,2147262875,2147463771,2147086390,2146956690,2147655588,2147122441,2674,-2,8,9170
1347895657,5806,442.7900085449219000,17.9171009063720700,36.5410995483398440,237.0928039550781200,157.9931945800781200,17.9154300689697270,30.6700496673584000,50,101,97,79,63,13296,2146955099,2147514907,2147263716,2147463908,2147086372,2146958683,2147652224,2147124516,2514,-1,8,22823
1347895789,5805,431.4500122070312500,17.9633998870849600,36.5472984313964840,236.6044006347656200,156.2747955322265600,17.9673194885253900,30.6707496643066400,50,101,98,80,64,13298,2146956169,2147517641,2147263707,2147462500,2147079844,2146959561,2147653010,2147124278,2407,-1,8,3975
1347895921,5807,420.1300048828125000,18.0279006958007800,36.5549011230468750,236.1567993164062500,154.1611022949218800,18.0311508178710940,30.6639308929443360,50,103,97,79,64,13296,2146954925,2147513234,2147262884,2147462710,2147082971,2146958610,2147656411,2147129334,2684,-1,8,17575
1347896044,5803,409.5899963378906000,18.0680999755859380,36.5609016418457000,235.4156951904297000,153.0009002685547000,18.0661907196044920,30.6839103698730470,50,101,98,79,64,13295,2146956022,2147510976,2147261796,2147459264,2147083483,2146961261,2147653147,2147123675,2914,-1,9,45093
1347896176,5803,398.1499938964844000,18.1254997253417970,36.5670013427734400,234.8744049072265600,151.1515960693359400,18.1220493316650400,30.6851291656494140,50,102,97,78,63,13296,2146956790,2147511424,2147262144,2147459547,2147088164,2146958976,2147653110,2147123776,2542,-1,8,509
1347896300,5805,387.4299926757812500,18.1688003540039060,36.5718002319335940,234.2884979248047000,149.7339019775390600,18.1648807525634770,30.6945590972900400,51,102,97,80,63,13293,2146953216,2147511277,2147261266,2147457792,2147082788,2146956982,2147651657,2147125796,2495,-1,8,47008
1347896432,5806,375.8200073242187500,18.2324008941650400,36.5780982971191400,233.6549987792968800,147.6430969238281200,18.2280502319335940,30.6973304748535160,50,102,97,80,64,13291,2146954934,2147511424,2147262966,2147459565,2147085001,2146957814,2147648749,2147126912,2598,-1,9,19876
1347896553,5808,365.1600036621094000,18.2817001342773440,36.5828018188476560,233.3822937011718800,146.0406951904297000,18.2764701843261720,30.6890907287597660,50,102,96,79,63,13292,2146956425,2147513170,2147263113,2147458020,2147085778,2146961526,2147652836,2147123273,2647,-1,8,2907
1347896676,5806,354.4899902343750000,18.3402996063232420,36.5873985290527340,232.4356994628906200,144.0314025878906200,18.3371906280517580,30.7080898284912100,51,104,97,80,64,13294,2146951405,2147512301,2147262701,2147459035,2147074925,2146962532,2147656603,2147127094,3014,-1,9,23157
1347896808,5800,343.3599853515625000,18.4256992340087900,36.5928001403808600,231.0437011718750000,141.2519989013672000,18.4211997985839840,30.7390308380126950,51,104,97,80,64,13292,2146952365,2147514029,2147263762,2147459446,2147085632,2146959350,2147655707,2147125120,2894,-1,9,54979
1347896943,5805,332.2900085449219000,18.5153007507324220,36.5988998413085940,228.8571929931640600,138.4282989501953000,18.5065593719482420,30.8092994689941400,50,103,96,79,64,13291,2146953947,2147511424,2147261604,2147459492,2147085339,2146962029,2147653970,2147126372,3238,-1,9,46796
1347897075,5807,321.6300048828125000,18.6117992401123050,36.6030006408691400,228.1403045654297000,135.0554962158203000,18.6085491180419920,30.7997703552246100,50,101,97,78,64,13292,2146952713,2147512201,2147263643,2147457499,2147082404,2146962523,2147656374,2147125037,2915,-1,9,15785
1347897210,5805,310.8599853515625000,18.7147998809814450,36.5970001220703100,229.1244964599609400,131.6640930175781200,18.7111301422119140,30.7059402465820300,51,102,96,78,63,13293,2146959332,2147513033,2147264484,2147456749,2147084534,2146965979,2147659885,2147128000,2013,-1,8,46715
1347897353,5805,299.2600097656250000,18.8041000366210940,36.5886993408203100,231.5691986083984400,128.7763061523437500,18.7985000610351560,30.5474300384521500,51,103,97,78,64,13292,2146954404,2147511670,2147261833,2147457947,2147080640,2146964324,2147660306,2147126381,2173,-1,8,19828
1347897485,5805,288.8299865722656000,18.8670997619628900,36.5859985351562500,233.0919952392578000,126.6146011352539000,18.8639202117919920,30.4449806213378900,51,103,96,79,65,13288,2146954185,2147511405,2147260086,2147458066,2147077851,2146964352,2147664905,2147126500,2388,-1,9,5604
1347897630,5807,277.7399902343750000,18.9771003723144530,36.5718994140625000,237.3076934814453000,123.0199966430664000,18.9727191925048830,30.1964092254638670,51,99,97,79,64,13292,2146954130,2147512960,2147262299,2147457773,2147087853,2146969700,2147666194,2147123337,3313,-1,9,25748
1347897784,5808,266.5199890136719000,19.0517997741699220,36.5600013732910160,242.4694061279297000,120.5277023315429700,19.0481796264648440,29.9232597351074220,51,100,97,79,63,13293,2146955026,2147508836,2147263387,2147457216,2147078601,2146969737,2147675666,2147127277,2905,-1,8,23329
1347897928,5806,254.5800018310547000,19.1102008819580080,36.5546989440918000,246.6873931884765600,118.5119018554687500,19.1092205047607420,29.7049007415771500,50,101,98,78,63,13289,2146955126,2147512109,2147263378,2147456009,2147085485,2146976411,2147685714,2147129974,3251,-1,9,22863
1347898049,5804,243.0899963378906200,19.1870994567871100,36.5556983947753900,248.9147949218750000,116.1427993774414000,19.1809806823730470,29.5742607116699220,50,101,96,79,62,13290,2146953764,2147512000,2147263021,2147454454,2147084982,2146985874,2147703716,2147127469,3117,-1,9,41767
1347898162,5808,232.4600067138672000,19.3302001953125000,36.5819015502929700,247.5216064453125000,111.5078964233398400,19.3214206695556640,29.5764694213867200,50,101,96,78,62,13291,2146953929,2147512923,2147262802,2147454153,2147088073,2146990326,2147718390,2147129261,47,-1,8,21964
1347898283,5806,221.1399993896484400,19.4057998657226560,36.5914001464843750,245.1280059814453000,108.8784027099609400,19.4011096954345700,29.6502304077148440,51,102,97,78,62,13290,2146952429,2147510902,2147263040,2147457280,2147089051,2147003510,2147742939,2147128832,48,-1,8,14445
1347898404,5808,209.8099975585937500,19.4388008117675780,36.5919990539550800,245.7799072265625000,107.8374023437500000,19.4326705932617200,29.6071491241455080,51,101,97,79,62,13288,2146953380,2147512082,2147267218,2147452909,2147090203,2147025709,2147778514,2147133056,325,-1,8,14290
1347898517,5808,199.2899932861328000,19.4962997436523440,36.5965995788574200,245.1813049316406200,106.0048980712890600,19.4882297515869140,29.6106300354003900,52,103,96,79,63,13292,2146953920,2147516132,2147267209,2147454198,2147090550,2147051099,2147827821,2147137462,932,-1,8,54199
1347898572,5808,194.2500000000000000,19.4510002136230470,36.5694007873535160,246.3294067382812500,107.3033981323242200,19.4488601684570300,29.5755805969238280,53,103,97,80,61,13286,2146952256,2147513718,2147272155,2147451081,2147096283,2147063497,2147859190,2147137115,936,-1,8,59182
1347898627,5807,189.1900024414062500,19.4729995727539060,36.5710983276367200,247.7752075195312500,106.6166992187500000,19.4696807861328120,29.5020503997802730,54,103,98,80,62,13286,2146955702,2147517613,2147271387,2147452022,2147099236,2147084050,2147888722,2147136704,970,-2,8,6558
1347898682,5808,184.1199951171875000,19.5174999237060550,36.5758018493652340,248.9297027587890600,105.2021026611328100,19.5125808715820300,29.4321594238281250,56,104,97,80,63,13283,2146952786,2147515702,2147274285,2147451721,2147102043,2147098587,2147932068,2147141906,939,-1,9,45293
1347898737,5807,178.9799957275390600,19.5419006347656250,36.5782012939453100,249.7955017089843800,104.3070983886718800,19.5397205352783200,29.3823890686035160,56,105,96,80,62,13284,2146956114,2147516032,2147275648,2147448539,2147102354,2147131629,2147979026,2147143844,1002,-1,9,51411
1347898811,5804,172.2799987792968800,19.6039009094238280,36.5806007385253900,250.9201965332031200,102.3053970336914000,19.6004390716552730,29.3070106506347660,57,108,97,80,63,13271,2146956242,2147518400,2147279561,2147453165,2147111488,2147173741,2148051593,2147148882,1168,-1,9,25550
1347898866,5804,167.6499938964843800,19.6643009185791000,36.5867004394531250,252.0133972167968800,100.4436035156250000,19.6569194793701170,29.2352504730224600,58,106,98,80,63,13275,2146955053,2147519067,2147278537,2147450989,2147113664,2147207606,2148113270,2147149092,1291,-2,9,28621
1347898921,5805,163.0399932861328000,19.7098999023437500,36.5880012512207000,250.9161987304687500,98.5797729492187500,19.7134704589843750,29.2593498229980470,59,106,99,80,63,13278,2146955913,2147521298,2147286418,2147451931,2147127908,2147255478,2148181769,2147157174,1133,-2,9,4217
1347898976,5806,158.4600067138672000,19.7555999755859380,36.5863990783691400,251.4841003417968800,97.1037597656250000,19.7582702636718750,29.2155208587646500,63,114,98,80,63,13270,2146959241,2147524726,2147286180,2147455049,2147137362,2147299428,2148266011,2147161133,1249,-2,9,23480
1347899031,5805,154.0599975585937500,19.8337993621826170,36.5889015197753900,248.9922943115234400,94.8082275390625000,19.8279495239257800,29.2958106994628900,69,112,99,81,64,13265,2146954998,2147525540,2147292461,2147448649,2147150646,2147363547,2148354084,2147166235,1320,-1,9,30067
1347899086,5804,149.8399963378906200,19.9097995758056640,36.5932998657226560,246.9996032714843800,92.3673400878906200,19.9020595550537100,29.3529090881347660,76,119,99,81,63,13253,2146958217,2147529481,2147296877,2147451163,2147168877,2147424118,2148453193,2147177197,1540,-1,9,8480
1347899164,5805,144.7500000000000000,20.0473995208740230,36.6086997985839840,245.7758941650390600,87.5937271118164000,20.0470600128173830,29.3464393615722660,84,113,98,82,63,13257,2146959268,2147532324,2147301248,2147451300,2147191917,2147511131,2148578468,2147185051,2029,-1,9,32777
1347899230,5804,141.5399932861328000,20.1254005432128900,36.6045989990234400,246.4846038818359400,85.3388214111328100,20.1155891418457030,29.2858200073242200,91,119,99,82,64,13250,2146958116,2147533248,2147304347,2147451072,2147212324,2147576027,2148672100,2147193179,2241,-1,9,51177
1347899318,5804,137.7500000000000000,20.2877006530761720,36.6124000549316400,248.0509033203125000,80.1784210205078100,20.2724704742431640,29.1499595642089840,94,123,100,82,64,13236,2146960128,2147537014,2147310738,2147451803,2147246637,2147670738,2148802349,2147203282,2433,-1,9,35826
1347899417,5804,133.8999938964843800,20.4664993286132800,36.6237983703613300,245.5247955322265600,74.2667465209961000,20.4523200988769530,29.1871604919433600,108,126,99,80,63,13233,2146959579,2147540507,2147318400,2147449654,2147292955,2147803355,2148984192,2147216292,2186,-2,9,33844
1347899529,5804,129.7200012207031200,20.6266994476318360,36.6554985046386700,246.5635986328125000,68.8580169677734400,20.6169795989990230,29.0718498229980470,116,119,99,83,62,13230,2146965440,2147546688,2147326848,2147450441,2147349824,2147952512,2149186697,2147231561,2297,-1,9,50916
1347899628,5806,125.6999969482421900,20.7579994201660160,36.6719017028808600,248.2615966796875000,64.6498184204101600,20.7451801300048830,28.9431896209716800,108,125,101,83,62,13220,2146969398,2147554998,2147339876,2147447881,2147425572,2148152411,2149446674,2147250441,2911,-2,9,59546
1347899727,5806,122.0199966430664000,20.8540992736816400,36.6640014648437500,248.2073974609375000,61.4060211181640600,20.8440494537353500,28.9044609069824220,123,130,99,83,63,13211,2146971593,2147566637,2147371273,2147450980,2147534610,2148415990,2149798555,2147279076,337,-1,9,41936
1347899846,5808,117.4300003051757800,21.0781002044677730,36.6801986694335940,249.5025939941406200,53.9872589111328100,21.0703296661376950,28.7538108825683600,121,132,99,82,62,13203,2146982153,2147582756,2147398537,2147450998,2147717357,2148837613,2150323108,2147324928,710,-1,9,57024
1347899934,5806,114.0299987792968800,21.2320003509521500,36.7015991210937500,245.9559020996093800,48.9672012329101560,21.2235908508300780,28.8465995788574220,125,126,101,82,62,13209,2146987401,2147599862,2147418368,2147451565,2147896658,2149206838,2150783771,2147360283,917,-1,9,59303
1347900055,5805,110.0899963378906200,21.5142993927001950,36.7351989746093750,238.4440002441406200,40.2627410888671900,21.4895992279052730,29.0753898620605470,124,120,100,81,61,13228,2146999259,2147616740,2147437723,2147450139,2148118436,2149656841,2151291574,2147407570,3368,-1,9,20617
1347900166,5805,105.6200027465820300,21.6599006652832030,36.7266006469726560,235.8065032958984400,34.5324211120605500,21.6649093627929700,29.1243305206298830,139,122,99,82,62,13204,2147016896,2147639186,2147467355,2147449444,2148473179,2150341458,2152064036,2147475273,2993,-1,9,1493
1347900254,5805,101.2300033569336000,21.8523006439209000,36.7053985595703100,236.4020996093750000,27.6527099609375000,21.8756008148193360,29.0096397399902340,140,127,100,82,62,13188,2147031990,2147671643,2147502930,2147451410,2148921810,2151189357,2153040941,2147569051,2398,-2,9,48266
1347900309,5802,98.4700012207031200,22.0939006805419920,36.7089996337890600,236.2444000244140600,21.2025794982910160,22.0733604431152340,28.9354190826416000,146,123,99,82,62,13190,2147047899,2147695634,2147537298,2147453677,2149275328,2151812059,2153770742,2147636416,1941,-2,9,62579
1347900364,5803,96.2600021362304700,22.1037998199462900,36.7075996398925800,236.4405975341797000,20.5168991088867200,22.0943908691406250,28.9175891876220700,146,125,100,82,62,13179,2147063241,2147723977,2147580013,2147452900,2149646829,2152453403,2154492123,2147706624,1543,-2,9,38528
1347900421,5805,94.2300033569336000,22.2518997192382800,36.6827011108398440,237.7404022216797000,16.2564792633056640,22.2251491546630860,28.8042106628417970,152,122,100,84,62,13174,2147076022,2147750765,2147639716,2147457883,2150026349,2153079533,2155166400,2147779602,1115,-2,9,39298
1347900476,5806,92.6800003051757800,22.2931003570556640,36.6739997863769500,239.5731048583984400,14.5745296478271480,22.2767906188964840,28.6994590759277340,154,126,100,82,63,13157,2147098678,2147776054,2147681636,2147461174,2150371392,2153651227,2155762560,2147841152,1000,-1,9,4965
1347900543,5801,91.3499984741211000,22.3547000885009770,36.6431999206543000,242.4526062011718800,12.9407796859741210,22.3269691467285160,28.5495395660400400,160,124,101,82,63,13151,2147110665,2147801389,2147712850,2147460059,2150671442,2154129654,2156241435,2147888612,964,-1,9,28294
1347900765,5804,89.2099990844726600,22.5941009521484380,36.6650009155273440,245.3231964111328000,4.8039879798889160,22.5771102905273440,28.3204994201660160,151,126,100,82,61,13145,2147133531,2147841755,2147762093,2147465682,2151207634,2154972909,2157149101,2147985417,1034,-2,9,22642
1347900844,5806,87.2099990844726600,22.7633991241455080,36.6910018920898440,243.6620025634765600,1.3847349882125854,22.6823291778564450,28.3512496948242200,166,126,100,82,62,13131,2147167204,2147887588,2147833197,2147465417,2151843986,2155940955,2158124114,2148096329,933,-1,9,24054
1347900947,5806,85.3399963378906200,22.8792991638183600,36.6862983703613300,240.3208007812500000,-4.6131939888000490,22.8670692443847660,28.4255790710449220,180,130,101,82,62,13107,2147200438,2147934811,2147856393,2147463826,2152664667,2157246125,2159422153,2148239597,1263,-2,10,28183
1347901061,5807,83.2399978637695300,23.1203994750976560,36.6357002258300800,245.4989013671875000,-12.1021699905395500,23.0980300903320300,28.1028308868408200,135,128,101,86,60,13134,2147260342,2148020132,2147936978,2147472292,2153888027,2159098733,2161148681,2148418486,1444,-1,9,21683
1347901128,5806,80.9700012207031200,23.4347991943359380,36.6482009887695300,242.4900054931640600,-21.1448497772216800,23.3773593902587900,28.1232604980468750,137,132,102,84,62,13113,2147313938,2148101659,2148033700,2147475940,2155154514,2161027785,2162989275,2148613586,1462,-1,9,19988
1347901183,5808,79.1999969482421900,23.5284004211425780,36.6432991027832000,241.7162933349609400,-24.8069190979003900,23.4906291961669920,28.1121501922607420,129,129,104,84,62,13105,2147362843,2148157915,2148064667,2147477824,2156075492,2162438153,2164279222,2148746706,1807,-1,9,24501
1347901262,5808,77.1299972534179700,23.5720996856689450,36.6265983581543000,242.5933990478515600,-26.8157691955566400,23.5527992248535160,28.0483703613281250,118,125,102,85,61,13139,2147423853,2148244141,2148162532,2147484571,2157391314,2164333257,2165987785,2148943844,1715,-1,9,47599
1347901363,5808,75.0100021362304700,23.7936992645263670,36.6165008544921900,242.6033020019531200,-33.5552406311035160,23.7615604400634770,27.9648094177246100,92,122,101,84,61,13163,2147545865,2148423030,2148413138,2147498614,2159726171,2167544365,2168730898,2149254290,1113,-2,9,6017
1347901430,5802,73.0299987792968800,23.9048004150390620,36.5998001098632800,242.8876037597656200,-37.3833198547363300,23.8802700042724600,27.9050407409667970,88,126,103,83,61,13164,2147624868,2148519597,2148429348,2147499126,2161723766,2170334116,2170980644,2149492562,1528,-2,9,18177
1347901509,5804,71.2600021362304700,23.9748001098632800,36.5951004028320300,242.8341064453125000,-40.0061607360839840,23.9616603851318360,27.8749504089355470,86,122,102,86,60,13167,2147728009,2148662747,2148581988,2147507456,2163918957,2173526747,2173769993,2149798939,1410,-1,9,43965
1347901600,5805,69.6299972534179700,24.0046005249023440,36.5798988342285160,243.0520935058593800,-40.8546981811523440,23.9880008697509770,27.8550300598144530,80,122,102,83,60,13162,2147854646,2148829549,2148799515,2147525787,2166353563,2176994294,2176773558,2150118473,1177,-1,9,20512
1347901678,5804,68.0800018310546900,24.0568008422851560,36.5702018737793000,243.0489044189453000,-42.9621887207031250,24.0534400939941400,27.8290290832519530,81,122,101,84,59,13163,2147989065,2148990454,2148876315,2147525430,2169872493,2181701485,2180437129,2150533622,1561,-1,9,15484
1347901745,5807,65.7500000000000000,24.0627994537353500,36.5453987121582000,243.8260955810547000,-42.8326683044433600,24.0494194030761720,27.7966098785400400,79,123,101,83,60,13157,2148195200,2149225472,2149026230,2147538358,2174700114,2188056064,2185347017,2151128310,2036,-1,9,37486
1347901800,5806,63.7299995422363300,24.0849990844726560,36.4878997802734400,250.1437072753906200,-44.2593994140625000,24.0937404632568360,27.5071296691894530,76,124,101,83,61,13143,2148330002,2149348352,2149079561,2147545261,2176766070,2189847689,2185586294,2151194258,2421,-1,9,60051
1347901855,5808,61.9799995422363300,24.1453990936279300,36.4668006896972660,253.1383972167968800,-45.8374900817871100,24.1427803039550780,27.3617992401123050,78,128,104,84,59,13158,2148608777,2149690441,2149403940,2147560173,2183264950,2198702262,2193345682,2152032009,1978,-2,9,40925
1347901922,5806,60.3400001525878900,24.2544994354248050,36.4472999572753900,257.1448974609375000,-49.2293014526367200,24.2482395172119140,27.1546001434326170,75,126,104,85,58,13154,2148497014,2149491986,2149196214,2147555026,2181010898,2193822345,2188074715,2151562980,1463,-2,9,31256
1347902024,5808,57.9599990844726560,24.5722007751464840,36.4314002990722660,258.0351867675781000,-58.8539009094238300,24.5479202270507800,27.0015792846679700,70,131,103,85,57,13158,2148122331,2148890166,2148535085,2147518701,2171151414,2177338624,2171208722,2149658020,356,-1,9,34698
1347902091,5806,56.3899993896484400,24.7579994201660160,36.4225006103515600,257.0661010742187500,-65.0615005493164000,24.7415695190429700,26.9659004211425780,68,128,103,84,60,13159,2149340041,2150379392,2149863451,2147607542,2198347830,2214978505,2203515437,2153300589,2873,-2,9,61581
1347902411,5808,53.1800003051757800,25.5333995819091800,36.4287986755371100,252.0021972656250000,-88.5371932983398400,25.4764804840087900,26.8910102844238280,66,127,103,85,59,13148,2148244818,2148904585,2148363602,2147494729,2174403584,2179151369,2170926153,2149657179,2599,-1,9,49430
1347902444,5803,52.9500007629394500,25.5762996673584000,36.4380989074707000,251.1427001953125000,-89.4657897949218800,25.5056400299072270,26.9155006408691400,66,140,103,86,57,13099,2148043840,2148664091,2148151707,2147479469,2169757595,2172991396,2165901595,2149099684,2424,-1,9,9839
1347902686,5806,50.8300018310546900,25.9620990753173830,36.3672981262207000,247.1441040039062500,-102.2671966552734400,25.9083099365234380,26.9287891387939450,67,127,106,86,60,13143,2150715264,2151891739,2151489307,2147863195,2224734793,2243470418,2222619876,2155737865,789,-2,10,4764
1347902951,5805,48.6399993896484400,26.2423000335693360,36.3973007202148440,251.5187988281250000,-112.6897964477539000,26.2371597290039060,26.6197700500488280,62,126,103,84,56,13148,2151103323,2152108617,2151103350,2147696164,2235198272,2254194194,2228981229,2156617691,2951,-1,9,10598
1347903016,5806,46.7299995422363300,26.8948001861572270,36.3325004577636700,247.8661041259765600,-131.7832946777343800,26.8419990539550780,26.5421905517578120,64,127,103,84,56,13139,2151631652,2152674633,2152010514,2147986761,2244439588,2263115584,2234873078,2157540169,637,-1,9,31374
1347903632,5809,44.8499984741210940,27.5179996490478500,36.3595008850097660,235.0343933105468800,-153.3114929199218800,27.5279197692871100,26.8349609375000000,61,119,103,87,55,13153,2152361152,2153304320,2151983881,2147757952,2259709211,2278390930,2244846189,2158755419,1646,-1,9,31574
1347903719,5805,42.8899993896484400,27.5382003784179700,36.3572998046875000,234.6076049804687500,-154.1378936767578000,27.5543308258056640,26.8439903259277340,59,122,102,84,58,13157,2151371346,2152094299,2150942235,2147716297,2233936484,2243776246,2215632704,2155124461,1280,-1,9,50077
1347903839,5804,40.6699981689453100,27.5300998687744140,36.3451004028320300,234.0964965820312500,-153.8278045654297000,27.5444202423095700,26.8704891204834000,59,121,102,85,55,13158,2153917028,2154725083,2153273417,2148111250,2293175561,2310449435,2264470729,2162113874,1111,-1,9,16513
1347903893,5809,38.8300018310546900,27.5326995849609380,36.3445014953613300,234.0482025146484400,-153.9712066650390600,27.5490093231201170,26.8708992004394530,58,122,102,85,52,13158,2154801499,2155543853,2153717010,2148080384,2312471012,2329645659,2275942893,2163468096,1235,-1,9,53820
1347903947,5804,36.5699996948242200,27.5449008941650400,36.3436012268066400,234.0426025390625000,-154.3128967285156200,27.5599308013916000,26.8669700622558600,58,124,103,84,52,13153,2155609142,2156234377,2154008658,2148049846,2333561627,2349978130,2288340928,2165549074,1390,-2,9,44028